Akron Fulton International Airport Akron US
ICAO: KAKR
IATA: AKC
Category: Medium
Scheduled Services: No

Elevation: 1067 ft
TransAlt. 18000 ft.

Airport Communications:
APP/DEP:118.6
ASOS:126.825
CTAF/UNICOM:123.075
CLEVELAND RDO:114.4

KAKR Zoom In..

If you have problems with the map follow the link
https://www.worldairports.se/pages/airport.php?
ICAO=KAKR

Runways:

(A) RW 01 length 2337 ft width 100 ft
LOC 110.90 / hdg 8

(B) RW 07 length 6336 ft width 150 ft
LOC 110.90 / hdg 69

(C) RW 19 length 2337 ft width 100 ft
LOC 110.90 / hdg 188

(D) RW 25 length 6336 ft width 150 ft
LOC 110.90 / hdg 249

Location; KAKR
Day. 26 / Time. 17.54 Zulu
* Altimeter: 30.01
* Temperature: 6/° c. 42.8°f.
* Wind from: 260° Speed 04 kn.
Dewpoint: //° c.
Visibility: 10 Statute Miles.
Clouds: Scattered 1000 ft.

KAKR 261754Z AUTO 26004KT 10SM SCT100 26/17 A3001 RMK AO2 SLP156 6//// T02560172 10261 20200 58012 $


Wind From 260°
Speed 04 kn.

 
 
jpsmedia.com for Web Design worldairports.se 2019   terms of use